Theta_e
375 362 361 365 361 359 363 361 367 363 359 359 359 356 356 350 348 351 348 349 348 343
374 372 365 375 371 362 367 363 365 362 358 357 356 356 355 349 349 349 345 344 343 338
368 371 371 372 372 369 367 368 365 361 357 357 357 355 354 350 350 347 340 337 339 336
368 367 367 364 367 368 367 367 365 362 359 356 355 355 354 352 348 343 341 338 334 332
366 368 364 364 367 371 368 367 365 361 360 356 355 355 352 346 345 342 338 333 331 328
363 363 362 364 365 370 370 369 361 359 361 360 355 353 351 348 344 341 335 331 330 327
364 366 362 368 371 366 368 364 360 357 358 356 354 352 349 347 343 339 333 330 329 329
370 371 372 377 373 369 368 364 363 361 359 354 351 348 349 345 342 337 332 330 330 329
377 378 375 377 372 369 367 362 357 357 356 352 346 336 341 344 339 337 332 330 330 331
376 375 376 369 346 332 333 350 350 352 351 350 342 333 334 337 336 331 331 331 330 328
374 371 357 333 334 344 343 330 341 345 344 345 331 329 329 332 332 332 332 331 328 325
362 343 337 337 337 335 349 346 347 345 342 331 329 325 325 329 333 329 330 328 325 324
342 339 343 341 336 343 346 342 341 340 336 330 329 322 321 328 327 326 322 327 326 321
351 348 339 344 349 350 345 340 339 337 335 332 326 323 318 319 327 323 321 323 321 321
Wind_Speed
11 9 9 9 7 6 4 7 9 5 4 6 5 4 3 4 3 4 5 6 6 7
11 11 10 8 9 6 4 8 7 7 7 6 6 5 3 6 3 2 4 5 5 6
13 12 10 9 9 8 7 7 10 10 9 8 6 5 3 6 5 4 6 7 6 8
12 13 13 11 10 10 10 10 11 10 10 9 8 5 2 6 6 6 5 5 6 5
13 12 13 13 13 11 11 13 12 11 11 11 10 8 6 5 7 5 5 4 4 5
15 15 15 16 16 15 14 14 15 13 12 12 12 10 8 7 6 6 5 4 4 4
16 16 17 15 14 15 13 14 14 14 13 12 12 13 11 9 8 7 6 5 5 4
15 13 11 10 12 13 13 13 13 13 13 12 11 9 11 10 10 8 7 6 4 5
11 11 11 11 11 10 6 8 13 14 13 12 8 16 9 9 9 9 7 6 3 6
13 12 11 9 12 8 6 3 5 6 3 2 8 13 12 3 9 8 7 4 3 5
12 11 12 14 8 5 18 17 19 11 13 9 3 10 12 5 9 7 7 4 2 1
11 14 12 8 7 6 4 8 12 13 11 13 8 11 11 8 8 9 6 7 3 1
14 13 9 6 12 10 12 8 7 10 11 13 10 10 9 7 6 8 5 6 5 7
14 12 6 3 9 13 11 12 10 10 10 11 10 9 7 3 3 5 4 4 7 8
Wind_Direction
207 210 219 202 255 203 215 156 154 184 150 131 157 119 127 153 58 78 63 36 14 324
201 219 208 228 203 216 222 119 165 154 161 143 144 151 172 91 98 65 24 93 25 334
201 202 221 206 210 222 178 158 159 167 164 158 150 148 241 171 102 54 14 63 37 345
197 199 204 209 205 217 177 171 173 173 164 160 160 148 127 67 87 65 58 51 64 46
195 198 196 204 198 200 184 179 178 178 168 166 164 155 151 191 117 120 87 74 71 45
196 197 201 197 197 190 184 182 176 179 175 174 167 157 167 140 140 114 107 107 89 81
198 202 204 195 196 186 182 185 180 184 178 179 170 167 155 146 139 133 123 113 111 107
201 202 206 185 187 181 183 187 179 182 177 177 172 174 155 150 140 142 134 121 143 142
193 192 192 177 173 175 180 224 177 178 173 174 176 100 87 146 142 142 141 144 157 150
186 184 179 138 92 91 92 146 58 351 52 247 113 116 119 128 142 152 138 144 138 268
178 174 111 111 104 115 141 156 179 176 165 192 114 125 125 141 135 126 138 128 111 20
106 95 97 86 36 325 234 160 183 183 146 121 171 147 148 187 159 135 142 143 177 77
125 131 137 138 159 240 227 184 145 138 128 155 164 170 166 188 144 152 176 143 174 178
156 163 187 144 143 147 145 117 138 139 137 154 161 180 157 132 150 191 167 249 184 147